Weather History for Porterville, CA

Change the Weather History Date:

Sunday, April 13, 2014

  Actual Average Record
Temperature  
Mean Temperature 62 °F -  
Max Temperature 77 °F 76 °F 92 °F (1962)
Min Temperature 48 °F 47 °F 38 °F (1953)
Degree Days  
Heating Degree Days 2    
Growing Degree Days 12 (Base 50)    
Moisture  
Dew Point 48 °F    
Average Humidity 60    
Maximum Humidity 82    
Minimum Humidity 36    
Precipitation  
Precipitation 0.00 in - - ()
Sea Level Pressure  
Sea Level Pressure 29.96 in    
Wind  
Wind Speed 6 mph (SW)    
Max Wind Speed 12 mph    
Max Gust Speed 16 mph    
Visibility 10 miles    
Events      
Averages and records for this station are not official NWS values.
T = Trace of Precipitation, MM = Missing Value Source: NWS Daily Summary

Daily Weather History Graph

Daily Weather History Graph

Search for Another Location

Airport:

Trip Planner

Search our weather history database for the weather conditions in past years. The results will help you decide how hot, cold, wet, or windy it might be!

Date:

Astronomy

Apr. 13, 2014 Rise Set
Actual Time 6:25 AM PDT 7:28 PM PDT
Civil Twilight 5:59 AM PDT 7:54 PM PDT
Nautical Twilight 5:28 AM PDT 8:26 PM PDT
Astronomical Twilight 4:55 AM PDT 8:58 PM PDT
Moon 6:13 PM PDT (4/13) 5:24 AM PDT (4/13)
Length of Visible Light 13h 55m
Length of Day
13h 02m
Waxing Gibbous, 97% of the Moon is Illuminated
Apr 13
Waxing Gibbous
Apr 15
Full
Apr 22
Last Quarter
Apr 28
New
May 6
First Quarter

Hourly Weather History & Observations

Time (PDT) Temp. Dew Point Humidity Pressure Visibility Wind Dir Wind Speed Gust Speed Precip Events Conditions
12:15 AM 57.2 °F 46.4 °F 67% 29.88 in 10.0 mi South 3.5 mph - N/A   Clear
12:35 AM 57.2 °F 44.6 °F 63% 29.88 in 10.0 mi South 9.2 mph - N/A   Clear
12:55 AM 55.4 °F 44.6 °F 67% 29.88 in 10.0 mi SSE 5.8 mph - N/A   Clear
1:15 AM 55.4 °F 44.6 °F 67% 29.89 in 10.0 mi SSE 4.6 mph - N/A   Clear
1:35 AM 55.4 °F 44.6 °F 67% 29.89 in 10.0 mi SSE 3.5 mph - N/A   Clear
1:55 AM 53.6 °F 44.6 °F 72% 29.89 in 10.0 mi SSE 5.8 mph - N/A   Clear
2:15 AM 55.4 °F 42.8 °F 63% 29.89 in 10.0 mi South 5.8 mph - N/A   Clear
2:35 AM 53.6 °F 42.8 °F 67% 29.89 in 10.0 mi South 5.8 mph - N/A   Clear
2:55 AM 53.6 °F 44.6 °F 72% 29.90 in 10.0 mi South 5.8 mph - N/A   Clear
3:15 AM 51.8 °F 44.6 °F 76% 29.90 in 10.0 mi SSE 4.6 mph - N/A   Clear
3:35 AM 51.8 °F 44.6 °F 76% 29.90 in 10.0 mi SSE 5.8 mph - N/A   Clear
3:55 AM 51.8 °F 42.8 °F 71% 29.90 in 10.0 mi South 6.9 mph - N/A   Clear
4:15 AM 51.8 °F 42.8 °F 71% 29.90 in 10.0 mi SSE 8.1 mph - N/A   Clear
4:35 AM 51.8 °F 42.8 °F 71% 29.91 in 10.0 mi South 6.9 mph - N/A   Clear
4:55 AM 51.8 °F 42.8 °F 71% 29.91 in 10.0 mi South 6.9 mph - N/A   Clear
5:15 AM 50.0 °F 42.8 °F 76% 29.91 in 10.0 mi South 5.8 mph - N/A   Clear
5:35 AM 50.0 °F 42.8 °F 76% 29.92 in 10.0 mi South 5.8 mph - N/A   Clear
5:55 AM 48.2 °F 42.8 °F 82% 29.93 in 10.0 mi SE 5.8 mph - N/A   Clear
6:15 AM 48.2 °F 42.8 °F 82% 29.94 in 10.0 mi South 5.8 mph - N/A   Clear
6:35 AM 48.2 °F 42.8 °F 82% 29.94 in 10.0 mi South 5.8 mph - N/A   Clear
6:55 AM 48.2 °F 42.8 °F 82% 29.95 in 10.0 mi SSE 5.8 mph - N/A   Clear
7:15 AM 51.8 °F 44.6 °F 76% 29.97 in 10.0 mi South 5.8 mph - N/A   Clear
7:35 AM 51.8 °F 44.6 °F 76% 29.98 in 10.0 mi South 5.8 mph - N/A   Clear
7:55 AM 53.6 °F 44.6 °F 72% 29.99 in 10.0 mi South 6.9 mph - N/A   Clear
8:55 AM 57.2 °F 46.4 °F 67% 30.01 in 10.0 mi SW 4.6 mph - N/A   Clear
9:15 AM 57.2 °F 48.2 °F 72% 30.01 in 10.0 mi Calm Calm - N/A   Clear
9:35 AM 59.0 °F 48.2 °F 67% 30.01 in 10.0 mi Calm Calm - N/A   Clear
9:55 AM 60.8 °F 48.2 °F 63% 30.01 in 10.0 mi Calm Calm - N/A   Clear
10:15 AM 60.8 °F 48.2 °F 63% 30.02 in 10.0 mi Calm Calm - N/A   Clear
10:35 AM 62.6 °F 48.2 °F 59% 30.02 in 10.0 mi Calm Calm - N/A   Clear
10:55 AM 64.4 °F 50.0 °F 59% 30.02 in 10.0 mi SW 3.5 mph - N/A   Clear
11:15 AM 64.4 °F 50.0 °F 59% 30.02 in 10.0 mi WSW 6.9 mph - N/A   Clear
11:35 AM 64.4 °F 51.8 °F 64% 30.01 in 10.0 mi SSW 4.6 mph - N/A   Clear
11:55 AM 66.2 °F 51.8 °F 60% 30.01 in 10.0 mi West 3.5 mph - N/A   Clear
12:15 PM 69.8 °F 51.8 °F 53% 30.01 in 10.0 mi West 9.2 mph - N/A   Clear
12:35 PM 69.8 °F 51.8 °F 53% 30.01 in 10.0 mi NW 4.6 mph - N/A   Clear
12:55 PM 71.6 °F 51.8 °F 50% 30.00 in 10.0 mi WNW 5.8 mph - N/A   Clear
1:15 PM 71.6 °F 51.8 °F 50% 29.99 in 10.0 mi West 5.8 mph - N/A   Clear
1:35 PM 71.6 °F 51.8 °F 50% 29.99 in 10.0 mi West 6.9 mph - N/A   Clear
1:55 PM 71.6 °F 51.8 °F 50% 29.98 in 10.0 mi West 9.2 mph - N/A   Clear
2:15 PM 73.4 °F 53.6 °F 50% 29.98 in 10.0 mi West 6.9 mph - N/A   Clear
2:35 PM 75.2 °F 51.8 °F 44% 29.97 in 10.0 mi West 10.4 mph - N/A   Clear
2:55 PM 75.2 °F 51.8 °F 44% 29.96 in 10.0 mi North 8.1 mph - N/A   Clear
3:15 PM 75.2 °F 51.8 °F 44% 29.95 in 10.0 mi West 6.9 mph 16.1 mph N/A   Clear
3:35 PM 75.2 °F 51.8 °F 44% 29.95 in 10.0 mi WNW 10.4 mph - N/A   Clear
3:55 PM 77.0 °F 51.8 °F 41% 29.94 in 10.0 mi WNW 11.5 mph - N/A   Clear
4:15 PM 77.0 °F 51.8 °F 41% 29.94 in 10.0 mi NNW 4.6 mph - N/A   Clear
4:35 PM 77.0 °F 51.8 °F 41% 29.93 in 10.0 mi WNW 11.5 mph 16.1 mph N/A   Clear
4:55 PM 75.2 °F 50.0 °F 41% 29.93 in 10.0 mi WNW 10.4 mph - N/A   Clear
5:15 PM 77.0 °F 50.0 °F 39% 29.93 in 10.0 mi WSW 5.8 mph - N/A   Clear
5:35 PM 75.2 °F 50.0 °F 41% 29.93 in 10.0 mi West 10.4 mph - N/A   Clear
5:55 PM 77.0 °F 48.2 °F 36% 29.93 in 10.0 mi WNW 10.4 mph - N/A   Clear
6:15 PM 75.2 °F 48.2 °F 38% 29.93 in 10.0 mi West 10.4 mph - N/A   Clear
6:35 PM 75.2 °F 48.2 °F 38% 29.93 in 10.0 mi West 8.1 mph - N/A   Clear
6:55 PM 75.2 °F 48.2 °F 38% 29.93 in 10.0 mi West 8.1 mph - N/A   Clear
7:15 PM 73.4 °F 48.2 °F 41% 29.93 in 10.0 mi WNW 8.1 mph - N/A   Clear
7:35 PM 71.6 °F 50.0 °F 46% 29.94 in 10.0 mi West 5.8 mph - N/A   Clear
7:55 PM 71.6 °F 51.8 °F 50% 29.95 in 10.0 mi West 5.8 mph - N/A   Clear
8:15 PM 69.8 °F 50.0 °F 49% 29.95 in 10.0 mi West 5.8 mph - N/A   Clear
8:35 PM 68.0 °F 51.8 °F 56% 29.96 in 10.0 mi West 3.5 mph - N/A   Clear
8:55 PM 66.2 °F 51.8 °F 60% 29.97 in 10.0 mi West 4.6 mph - N/A   Clear
9:15 PM 66.2 °F 50.0 °F 56% 29.98 in 10.0 mi Calm Calm - N/A   Clear
9:35 PM 66.2 °F 51.8 °F 60% 29.99 in 10.0 mi Calm Calm - N/A   Clear
9:55 PM 64.4 °F 51.8 °F 64% 29.99 in 10.0 mi East 3.5 mph - N/A   Clear
10:15 PM 64.4 °F 50.0 °F 59% 29.99 in 10.0 mi East 4.6 mph - N/A   Clear
10:35 PM 64.4 °F 50.0 °F 59% 29.99 in 10.0 mi East 5.8 mph - N/A   Clear
10:55 PM 60.8 °F 48.2 °F 63% 30.00 in 10.0 mi ESE 3.5 mph - N/A   Clear
11:15 PM 60.8 °F 50.0 °F 68% 30.01 in 10.0 mi Calm Calm - N/A   Clear
11:35 PM 59.0 °F 48.2 °F 67% 30.01 in 10.0 mi Calm Calm - N/A   Clear
11:55 PM 59.0 °F 48.2 °F 67% 30.01 in 10.0 mi SSE 5.8 mph - N/A   Clear